Bostic, NC

9:38 AM EST on February 22, 2017 (GMT -0500)
Rutherford County-Marchman

Weather History for KFQD - August, 2013

Change the Weather History Date:

Thursday, August 29, 2013

  Actual Average (KAVL) Record (KAVL)
Temperature  
Mean Temperature 79 °F -  
Max Temperature 91 °F 82 °F 98 °F (1948)
Min Temperature 67 °F 59 °F 42 °F (1986)
Cooling Degree Days 14    
Growing Degree Days 29 (Base 50)    
Moisture  
Dew Point 69 °F    
Average Humidity 73    
Maximum Humidity 100    
Minimum Humidity 42    
Precipitation  
Precipitation 0.05 in - - ()
Sea Level Pressure  
Sea Level Pressure 29.98 in    
Wind  
Wind Speed 3 mph (NNW)    
Max Wind Speed 13 mph    
Max Gust Speed 18 mph    
Visibility 8 miles    
Events Rain , Thunderstorm    
Averages and records for this station are not official NWS values.
T = Trace of Precipitation, MM = Missing Value Source: NWS Daily Summary

Daily Weather History Graph

Daily Weather History Graph

Search for Another Location

Airport or City:

Trip Planner

Search our weather history database for the weather conditions in past years. The results will help you decide how hot, cold, wet, or windy it might be!

Date:

Astronomy

Aug. 29, 2013 Rise Set
Actual Time 6:57 AM EDT 7:58 PM EDT
Civil Twilight 6:31 AM EDT 8:24 PM EDT
Nautical Twilight 6:00 AM EDT 8:55 PM EDT
Astronomical Twilight 5:28 AM EDT 9:27 PM EDT
Moon 12:54 AM EDT (8/29) 3:19 PM EDT (8/29)
Length of Visible Light 13h 52m
Length of Day
13h 00m
Last Quarter, 38% of the Moon is Illuminated
Aug 29
Last Quarter
Sep 5
New
Sep 12
First Quarter
Sep 19
Full
Sep 26
Last Quarter

Hourly Weather History & Observations

Time (EDT) Temp. Heat Index Dew Point Humidity Pressure Visibility Wind Dir Wind Speed Gust Speed Precip Events Conditions
12:17 AM 71.6 °F - 69.8 °F 94% 29.98 in 5.0 mi Calm Calm - N/A   Clear
12:34 AM 71.6 °F - 69.8 °F 94% 29.97 in 5.0 mi Calm Calm - N/A   Clear
12:54 AM 71.6 °F - 69.8 °F 94% 29.97 in 7.0 mi Calm Calm - N/A   Clear
1:14 AM 71.6 °F - 69.8 °F 94% 29.97 in 7.0 mi Calm Calm - N/A   Clear
1:34 AM 71.6 °F - 69.8 °F 94% 29.97 in 5.0 mi Calm Calm - N/A   Clear
1:54 AM 71.6 °F - 69.8 °F 94% 29.97 in 5.0 mi Calm Calm - N/A   Clear
2:14 AM 71.6 °F - 69.8 °F 94% 29.97 in 4.0 mi Calm Calm - N/A   Clear
2:34 AM 69.8 °F - 69.8 °F 100% 29.97 in 4.0 mi Calm Calm - N/A   Clear
2:54 AM 69.8 °F - 69.8 °F 100% 29.96 in 1.8 mi Calm Calm - N/A   Clear
3:14 AM 69.8 °F - 68.0 °F 94% 29.96 in 2.5 mi Calm Calm - N/A   Clear
3:36 AM 69.8 °F - 69.8 °F 100% 29.96 in 3.0 mi WNW 3.5 mph - N/A   Clear
3:55 AM 69.8 °F - 68.0 °F 94% 29.96 in 3.0 mi NW 3.5 mph - N/A   Clear
4:14 AM 69.8 °F - 69.8 °F 100% 29.96 in 4.0 mi Calm Calm - N/A   Clear
4:34 AM 69.8 °F - 68.0 °F 94% 29.95 in 3.0 mi West 4.6 mph - N/A   Clear
4:54 AM 69.8 °F - 68.0 °F 94% 29.95 in 4.0 mi Calm Calm - N/A   Clear
5:14 AM 68.0 °F - 68.0 °F 100% 29.96 in 4.0 mi Calm Calm - N/A   Clear
5:34 AM 68.0 °F - 66.2 °F 94% 29.96 in 4.0 mi Calm Calm - N/A   Clear
5:54 AM 69.8 °F - 68.0 °F 94% 29.96 in 5.0 mi NNE 3.5 mph - N/A   Scattered Clouds
6:14 AM 68.0 °F - 66.2 °F 94% 29.96 in 4.0 mi NW 3.5 mph - N/A   Scattered Clouds
6:34 AM 69.8 °F - 66.2 °F 88% 29.97 in 5.0 mi West 8.1 mph - N/A   Scattered Clouds
6:54 AM 68.0 °F - 66.2 °F 94% 29.97 in 4.0 mi Calm Calm - N/A   Mostly Cloudy
7:15 AM 70.7 °F - 67.5 °F 89% 29.98 in 7.0 mi Calm Calm - N/A   Scattered Clouds
7:35 AM 67.5 °F - 66.9 °F 98% 29.99 in 2.0 mi Calm Calm - N/A   Scattered Clouds
7:55 AM 68.0 °F - 67.1 °F 97% 29.99 in 3.0 mi NW 3.5 mph - N/A   Scattered Clouds
8:15 AM 71.4 °F - 68.5 °F 91% 29.99 in 5.0 mi Calm Calm - N/A   Mostly Cloudy
8:35 AM 71.2 °F - 68.5 °F 91% 29.99 in 5.0 mi Calm Calm - N/A   Scattered Clouds
8:55 AM 74.3 °F - 69.8 °F 86% 29.99 in 7.0 mi Calm Calm - N/A   Scattered Clouds
9:15 AM 76.3 °F - 70.9 °F 83% 30.00 in 7.0 mi Calm Calm - N/A   Scattered Clouds
9:35 AM 79.2 °F - 71.8 °F 78% 30.00 in 10.0 mi Calm Calm - N/A   Clear
9:55 AM 81.0 °F 85.4 °F 72.3 °F 75% 30.00 in 10.0 mi Calm Calm - N/A   Clear
10:15 AM 83.5 °F 89.1 °F 72.5 °F 69% 30.00 in 10.0 mi Calm Calm - N/A   Clear
10:35 AM 84.4 °F 90.0 °F 71.8 °F 66% 30.00 in 10.0 mi WNW 5.8 mph - N/A   Clear
10:55 AM 85.5 °F 90.8 °F 70.9 °F 62% 30.00 in 10.0 mi NW 4.6 mph - N/A   Clear
11:15 AM 86.4 °F 92.6 °F 71.8 °F 62% 30.00 in 10.0 mi NW 6.9 mph - N/A   Clear
11:35 AM 87.6 °F 94.8 °F 72.9 °F 61% 30.00 in 10.0 mi WNW 4.6 mph - N/A   Clear
11:55 AM 87.6 °F 93.1 °F 70.5 °F 57% 30.00 in 10.0 mi North 8.1 mph 17.3 mph N/A   Clear
12:15 PM 88.5 °F 93.5 °F 70.0 °F 54% 29.99 in 10.0 mi NW 9.2 mph - N/A   Scattered Clouds
12:35 PM 86.7 °F 91.4 °F 69.8 °F 57% 29.99 in 10.0 mi WNW 6.9 mph - N/A   Scattered Clouds
12:55 PM 87.8 °F 92.6 °F 69.8 °F 55% 29.99 in 10.0 mi WNW 8.1 mph - N/A   Scattered Clouds
1:15 PM 90.0 °F 94.5 °F 69.3 °F 50% 29.98 in 10.0 mi NW 11.5 mph 16.1 mph N/A   Clear
1:35 PM 90.5 °F 95.5 °F 69.6 °F 50% 29.98 in 10.0 mi WNW 10.4 mph 16.1 mph N/A   Clear
1:55 PM 90.5 °F 95.1 °F 68.7 °F 49% 29.98 in 10.0 mi NW 10.4 mph - N/A   Clear
2:15 PM 90.7 °F 95.0 °F 68.4 °F 48% 29.97 in 10.0 mi WNW 9.2 mph - N/A   Scattered Clouds
2:35 PM 91.2 °F 95.5 °F 68.2 °F 47% 29.97 in 10.0 mi North 8.1 mph - N/A   Scattered Clouds
2:55 PM 90.9 °F 94.0 °F 66.7 °F 45% 29.96 in 10.0 mi NW 12.7 mph 18.4 mph N/A   Clear
3:15 PM 91.8 °F 94.6 °F 66.4 °F 43% 29.96 in 10.0 mi NNE 8.1 mph - N/A   Clear
3:35 PM 91.4 °F 93.6 °F 65.1 °F 42% 29.95 in 10.0 mi NNW 6.9 mph - N/A   Clear
3:55 PM 91.8 °F 94.6 °F 66.2 °F 43% 29.95 in 10.0 mi NNE 6.9 mph - N/A   Clear
4:15 PM 91.9 °F 95.4 °F 67.1 °F 44% 29.94 in 10.0 mi North 5.8 mph - N/A   Clear
4:35 PM 91.9 °F 95.9 °F 67.6 °F 45% 29.94 in 10.0 mi North 5.8 mph - N/A   Clear
4:55 PM 91.6 °F 94.8 °F 66.7 °F 44% 29.94 in 10.0 mi NNE 4.6 mph - N/A   Clear
5:15 PM 91.4 °F 94.5 °F 66.6 °F 44% 29.95 in 10.0 mi North 4.6 mph - N/A   Clear
5:35 PM 91.4 °F 94.9 °F 67.3 °F 45% 29.95 in 10.0 mi NNW 3.5 mph - N/A   Clear
5:55 PM 90.9 °F 95.3 °F 68.7 °F 48% 29.94 in 10.0 mi NNW 5.8 mph - N/A   Clear
6:15 PM 90.0 °F 94.1 °F 68.5 °F 49% 29.94 in 10.0 mi WNW 10.4 mph - N/A   Clear
6:35 PM 87.1 °F 91.3 °F 68.9 °F 55% 29.94 in 10.0 mi Calm Calm - N/A   Clear
6:55 PM 87.8 °F 93.0 °F 70.3 °F 56% 29.94 in 10.0 mi WNW 6.9 mph - N/A   Clear
7:15 PM 85.8 °F 91.5 °F 71.6 °F 62% 29.95 in 10.0 mi WNW 3.5 mph - N/A   Clear
7:35 PM 84.0 °F 89.0 °F 71.2 °F 65% 29.95 in 10.0 mi WNW 8.1 mph - N/A   Clear
7:55 PM 81.9 °F 86.4 °F 71.6 °F 71% 29.96 in 10.0 mi WNW 9.2 mph - N/A   Clear
8:34 PM 80.6 °F 84.6 °F 71.6 °F 74% 29.99 in 10.0 mi ENE 4.6 mph - N/A   Clear
9:14 PM 80.6 °F 84.6 °F 71.6 °F 74% 30.00 in 10.0 mi East 4.6 mph - N/A   Scattered Clouds
9:34 PM 80.6 °F 84.6 °F 71.6 °F 74% 30.00 in 10.0 mi ENE 5.8 mph - N/A   Mostly Cloudy
9:56 PM 80.6 °F 84.6 °F 71.6 °F 74% 30.01 in 10.0 mi NE 4.6 mph - N/A   Overcast
10:14 PM 80.6 °F 84.6 °F 71.6 °F 74% 30.02 in 10.0 mi ENE 5.8 mph - N/A   Overcast
10:34 PM 80.6 °F 84.6 °F 71.6 °F 74% 30.02 in 10.0 mi ENE 6.9 mph - N/A   Mostly Cloudy
10:54 PM 80.6 °F 84.6 °F 71.6 °F 74% 30.02 in 10.0 mi NNE 6.9 mph - N/A   Mostly Cloudy
11:14 PM 78.8 °F - 71.6 °F 78% 30.03 in 10.0 mi ENE 6.9 mph - N/A   Mostly Cloudy
11:34 PM 78.8 °F - 71.6 °F 78% 30.03 in 10.0 mi NNE 6.9 mph - N/A Thunderstorm Overcast
11:55 PM 75.2 °F - 73.4 °F 94% 30.04 in 2.5 mi NE 6.9 mph - 0.05 in Rain Rain